Location: Treviso
(45.6669°N, 12.2430°E)
Time: 19:39:42
(UTC+01:00)

ISS - Pass Details

Date: 21 September 2018
Orbit: 402 x 409 km, 51.6° (Epoch: 13 November)

Event Time Altitude Azimuth Distance (km) Brightness Sun altitude
Rises 21:02:43 0° 221° (SW) 2,334 0.3 -19.9°
Reaches altitude 10° 21:04:52 10° 214° (SSW) 1,476 -0.9 -20.2°
Enters shadow 21:05:57 18° 205° (SSW) 1,074 -1.7 -20.4°
